Retour au catalogue

DEB SIMORGH

ActifLEO
NORAD 65789·DEBRIS·🇮🇷 Iran
Ce nom de satellite n'a pas encore été confirmé par des sources officielles.

Lancé Jan 28, 2024 depuis Semnan Space Center

Loading…

Prochains Passages (prochaines 24 heures)

TLE

PériméSource: Space-Track

Époque: Sep 2, 2026, 20:18 UTC

1 65789U 24018E   26245.84613841  .00002997  00000-0  28493-3 0  9990
2 65789  58.9612 285.4578 0366566 147.0158 215.4339 14.56764315120276

Suivez DEB SIMORGH en temps réel avec AllMySat

Download on the App Store